sat.trackr.live / text

‹ back to catalog

STARLINK-1185

NORAD 45087 · 2020-006AV

PAYLOAD ACTIVE UNKNOWN

§ Identity

Operator
Country
US
Launch date
2020-01-29
Launch site
AFETR
Launch vehicle
Mass (kg)
RCS (m²)

Purposes: comms

External: N2YO · Heavens-Above · Gunter

§ Orbital elements

Epoch: 2026-09-14T20:12:53.296992Z

Period
92.50 min
Inclination
53.1538°
Eccentricity
0.0000520
Mean motion
15.56840358 rev/d
Perigee alt
396.5 km
Apogee alt
397.2 km
Semi-major
6,774.9 km
B*
1.0639e-3
RAAN
62.1578°
Arg perigee
40.8032°
Mean anomaly
319.3019°
Rev number
36,635

§ Raw data

STARLINK-11851 45087U 20006AV  26257.84228353  .00077995  00000+0  10639-2 0  99962 45087  53.1538  62.1578 0000520  40.8032 319.3019 15.56840358366358

JSON: /api/v1/satellites/45087 · /tle

For live sub-satellite position, see the globe view (requires WebGL).

§ Visibility from observer

Set your observer location to see the next 7 days of passes ≥ 10°. The values pass through the URL so the page stays shareable.

No JS? Fill the form by hand. The geolocation button needs JavaScript.